This demonstration page uses our WeatherBlox Daily Observations layout. Learn more.

Left ArrowRight Arrow

Hourly Observations for November 18, 2018

Temp ( °F °C ) Dew Point ( °F °C ) Humidity (%) Winds ( mph kmh ) Pressure ( in mb ) Visibility ( mi km ) Precip ( " mm )
12:53 am 00:53 Clear 17 -8.3 12 -11.1 80 80 W 12 19 30.19 1022 10 16 0.00 0.00
1:53 am 01:53 Clear 16 -8.9 11 -11.7 80 80 W 9 15 30.15 1021 10 16 0.00 0.00
2:53 am 02:53 Clear 18 -7.8 13 -10.6 81 81 SW 17 28 30.12 1020 10 16 0.00 0.00
3:53 am 03:53 Clear 19 -7.2 13 -10.6 77 77 WSW 14 22 30.11 1020 10 16 0.00 0.00
4:53 am 04:53 Mostly Cloudy 25 -3.9 18 -7.8 75 75 SW 16 26 30.09 1019 10 16 0.00 0.00
5:53 am 05:53 Cloudy 29 -1.7 20 -6.7 69 69 SW 18 30 30.08 1019 10 16 0.00 0.00
7:53 am 07:53 undefined 30 -1.1 20 -6.7 66 66 undefined N/A 30.04 1017 N/A 0.00 0.00
8:53 am 08:53 Cloudy 32 0 23 -5 69 69 SW 20 31 30.05 1018 10 16 0.00 0.00
9:53 am 09:53 Cloudy 34 1.1 23 -5 64 64 SW 22 35 30.04 1017 10 16 0.00 0.00
10:53 am 10:53 Cloudy 35 1.7 24 -4.4 64 64 WSW 15 24 30.06 1018 10 16 0.00 0.00
11:53 am 11:53 Cloudy 36 2.2 25 -3.9 64 64 SW 17 28 30.04 1017 10 16 0.00 0.00
12:53 pm 12:53 Cloudy 36 2.2 27 -2.8 70 70 SW 17 28 30.02 1017 10 16 0.00 0.00
1:53 pm 13:53 Cloudy 36 2.2 28 -2.2 73 73 WSW 13 20 30.05 1018 10 16 0.00 0.00
2:53 pm 14:53 Cloudy 37 2.8 28 -2.2 70 70 WSW 13 20 30.06 1018 10 16 0.00 0.00
3:18 pm 15:18 Cloudy 37 3 28 -2 70 70 WSW 10 17 30.06 1018 10 16 0.00 0.00
3:53 pm 15:53 Cloudy 39 3.9 33 0.6 79 79 W 12 19 30.08 1019 10 16 0.00 0.00
4:53 pm 16:53 Cloudy 38 3.3 33 0.6 83 83 WSW 9 15 30.09 1019 10 16 0.00 0.00
5:53 pm 17:53 Cloudy 37 2.8 33 0.6 86 86 SW 6 9 30.10 1019 10 16 0.00 0.00
6:36 pm 18:36 Partly Cloudy 37 2.8 34 1.1 89 89 W 9 15 30.12 1020 10 16 0.00 0.00
6:53 pm 18:53 Mostly Cloudy 37 2.8 33 0.6 86 86 W 6 9 30.12 1020 10 16 0.00 0.00
7:23 pm 19:23 Mostly Cloudy 37 2.8 34 1.1 89 89 WSW 9 15 30.12 1020 10 16 0.00 0.00
7:53 pm 19:53 Cloudy 36 2.2 33 0.6 89 89 W 8 13 30.14 1021 10 16 0.00 0.00
8:29 pm 20:29 Cloudy 35 1.7 33 0.6 93 93 WSW 6 9 30.12 1020 10 16 0.00 0.00
8:53 pm 20:53 Cloudy 34 1.1 33 0.6 97 97 SW 9 15 30.14 1021 10 16 0.00 0.00
9:53 pm 21:53 Cloudy 36 2.2 34 1.1 93 93 WSW 9 15 30.15 1021 10 16 0.00 0.00
10:53 pm 22:53 Cloudy 36 2.2 34 1.1 93 93 SW 9 15 30.16 1021 10 16 0.00 0.00
11:53 pm 23:53 Cloudy 35 1.7 33 0.6 93 93 SW 10 17 30.17 1022 10 16 0.00 0.00

Powered by AerisWeather